FW4468 Weather Reports


time (UTC)temp
F
wind
direction
speed
knots
gust
knots
rain 1hr
in
rain 24hr
in
rain mn
in
humidity
%
barometer
mb
20260831160016 60 309 0.0 4.3 0.00 0.00 0.00 64 1013.1
20260831154514 59 150 0.0 4.3 0.00 0.00 0.00 65 1013.4
20260831153010 58 325 0.9 5.2 0.00 0.00 0.00 66 1013.3
20260831151608 57 73 0.0 2.6 0.00 0.00 0.00 68 1013.3
20260831150005 56 189 0.0 4.3 0.00 0.00 0.00 74 1013.2
20260831144504 55 53 0.0 2.6 0.00 0.00 0.00 76 1013.3
20260831143004 54 125 0.0 3.5 0.00 0.00 0.00 76 1013.3
20260831141502 54 116 0.0 2.6 0.00 0.00 0.00 76 1013.2
20260831140002 54 96 0.0 2.6 0.00 0.00 0.00 75 1013.2
20260831134501 54 115 0.0 0.9 0.00 0.00 0.00 75 1013.2
20260831133001 54 159 0.0 1.7 0.00 0.00 0.00 74 1013.1
20260831131604 54 271 0.0 1.7 0.00 0.00 0.00 74 1013.1
20260831130059 54 284 0.9 4.3 0.00 0.00 0.00 75 1013.2
20260831124557 54 63 0.9 3.5 0.00 0.00 0.00 76 1013.5
20260831123055 54 154 0.0 2.6 0.00 0.00 0.00 76 1013.5
20260831121554 55 279 0.0 2.6 0.00 0.00 0.00 77 1013.7
20260831120053 55 30 0.0 3.5 0.00 0.00 0.00 78 1013.7
20260831114552 54 243 0.0 2.6 0.00 0.00 0.00 78 1013.9
20260831113052 54 280 0.0 3.5 0.00 0.00 0.00 78 1014.1
20260831111559 54 290 0.0 2.6 0.00 0.00 0.00 78 1014.3
20260831110047 53 126 0.0 1.7 0.00 0.00 0.00 74 1014.2
20260831104548 53 109 0.0 0.9 0.00 0.00 0.00 74 1014.4
20260831103044 54 5 0.0 0.9 0.00 0.00 0.00 74 1014.4
20260831101550 53 254 0.0 0.9 0.00 0.00 0.00 71 1014.5
20260831100040 53 254 0.0 0.9 0.00 0.00 0.00 70 1014.7
20260831094538 54 254 0.0 0.9 0.00 0.00 0.00 70 1015.0
20260831093039 54 254 0.0 1.7 0.00 0.00 0.00 69 1015.2
20260831091551 54 254 0.0 1.7 0.00 0.00 0.00 68 1015.1
20260831090032 54 273 0.0 0.9 0.00 0.00 0.00 68 1015.4
20260831084529 55 273 0.0 0.0 0.00 0.00 0.00 68 1015.5
20260831083028 55 273 0.0 0.9 0.00 0.00 0.00 68 1015.4
20260831081535 56 271 0.0 1.7 0.00 0.00 0.00 67 1015.8
20260831080140 56 271 0.0 0.9 0.00 0.00 0.00 68 1015.9
20260831074524 56 288 0.0 0.9 0.00 0.00 0.00 67 1015.8
20260831073052 56 275 0.0 0.9 0.00 0.00 0.00 67 1015.9
20260831071519 56 275 0.0 0.0 0.00 0.00 0.00 67 1016.0
20260831070017 56 275 0.0 0.9 0.00 0.00 0.00 67 1016.2
20260831064516 56 275 0.0 1.7 0.00 0.00 0.00 67 1016.5
20260831063023 56 59 0.0 0.9 0.00 0.00 0.00 67 1016.5
20260831061513 57 5 0.0 0.0 0.00 0.00 0.00 66 1016.6
20260831060014 57 5 0.0 1.7 0.00 0.00 0.00 65 1016.8
20260831054515 57 9 0.0 0.9 0.00 0.00 0.00 64 1016.8
20260831053011 58 9 0.0 0.0 0.00 0.00 0.00 63 1017.0
20260831051508 58 9 0.0 2.6 0.00 0.00 0.00 63 1017.2
20260831050008 59 276 0.0 0.9 0.00 0.00 0.00 61 1017.3
20260831044508 59 297 0.0 1.7 0.00 0.00 0.00 60 1017.3
20260831043007 60 297 0.0 0.9 0.00 0.00 0.00 59 1017.3
20260831041506 61 297 0.0 1.7 0.00 0.00 0.00 58 1017.4
20260831040006 61 20 0.0 1.7 0.00 0.00 0.00 57 1017.4
20260831034506 61 321 0.0 2.6 0.00 0.00 0.00 57 1017.3
20260831033005 62 67 0.9 2.6 0.00 0.00 0.00 55 1017.2
20260831031504 63 156 0.0 4.3 0.00 0.00 0.00 54 1017.2
20260831030004 63 69 0.0 3.5 0.00 0.00 0.00 53 1017.2
20260831024504 64 227 0.0 2.6 0.00 0.00 0.00 52 1017.2
20260831023002 65 111 0.0 3.5 0.00 0.00 0.00 51 1017.3
20260831021505 66 355 0.9 3.5 0.00 0.00 0.00 49 1017.3
20260831020002 67 16 0.0 3.5 0.00 0.00 0.00 47 1017.5
20260831014500 68 76 0.0 2.6 0.00 0.00 0.00 45 1017.4
20260831013109 68 55 0.0 3.5 0.00 0.00 0.00 44 1017.5
20260831011559 68 71 0.0 4.3 0.00 0.00 0.00 44 1017.5
20260831010121 69 45 0.0 3.5 0.00 0.00 0.00 42 1017.8
20260831004603 69 36 0.9 4.3 0.00 0.00 0.00 43 1017.9
20260831003105 69 165 0.0 1.7 0.00 0.00 0.00 44 1017.9
20260831001554 69 80 0.0 1.7 0.00 0.00 0.00 42 1018.1
20260831000053 70 183 0.0 1.7 0.00 0.00 0.00 42 1017.9
20260830234552 70 154 0.0 4.3 0.00 0.00 0.00 41 1018.1
20260830233051 70 55 0.9 4.3 0.00 0.00 0.00 41 1018.2
20260830231550 70 225 0.9 3.5 0.00 0.00 0.00 42 1018.3
20260830230049 72 355 0.0 3.5 0.00 0.00 0.00 38 1018.3
20260830224548 72 350 0.9 4.3 0.00 0.00 0.00 38 1018.3
20260830223046 73 155 1.7 6.1 0.00 0.00 0.00 39 1018.4
20260830221541 71 167 0.9 4.3 0.00 0.00 0.00 41 1018.7
20260830220041 70 163 2.6 7.0 0.00 0.00 0.00 41 1018.9
20260830214541 71 246 2.6 7.8 0.00 0.00 0.00 41 1018.9
20260830213037 70 264 2.6 7.0 0.00 0.00 0.00 45 1018.9
20260830211534 69 139 2.6 7.0 0.00 0.00 0.00 46 1019.1
20260830210033 69 140 1.7 7.8 0.00 0.00 0.00 47 1019.0
20260830204535 69 124 1.7 7.0 0.00 0.00 0.00 50 1019.0
20260830203029 68 65 0.9 5.2 0.00 0.00 0.00 52 1019.1
20260830201526 68 188 1.7 7.8 0.00 0.00 0.00 52 1019.2
20260830200025 67 157 0.0 7.0 0.00 0.00 0.00 54 1019.4
20260830194524 68 145 2.6 7.0 0.00 0.00 0.00 53 1019.5
20260830193022 67 144 0.0 6.1 0.00 0.00 0.00 53 1019.6
20260830191519 66 177 2.6 6.1 0.00 0.00 0.00 55 1019.6
20260830190017 66 35 0.9 4.3 0.00 0.00 0.00 56 1019.7
20260830184515 65 177 0.0 6.1 0.00 0.00 0.00 57 1019.9
20260830183013 65 209 0.0 7.0 0.00 0.00 0.00 56 1019.8
20260830181512 64 24 0.0 7.0 0.00 0.00 0.00 59 1019.6
20260830180008 63 161 1.7 6.1 0.00 0.00 0.00 59 1019.5
20260830174507 62 224 0.9 6.1 0.00 0.00 0.00 61 1019.6
20260830173005 62 248 1.7 5.2 0.00 0.00 0.00 61 1019.6
20260830171505 62 176 1.7 3.5 0.00 0.00 0.00 61 1019.6
20260830170100 61 87 0.0 2.6 0.00 0.00 0.00 63 1019.6
20260830164559 59 153 0.0 3.5 0.00 0.00 0.00 64 1019.5
20260830163101 60 161 0.9 3.5 0.00 0.00 0.00 64 1019.6
20260830161607 59 220 0.9 3.5 0.00 0.00 0.00 65 1019.5